Date String (YYYY-MM-DD hh:mm:ss) UTC,Instrument flags,Ambient pressure (hPa),Sample flow (lpm),Bypass flow (lpm),Sample temperature (°C),Ambient temperature (°C),ASC tube jacket temperature (°C),LED temperature (°C),Box temperature (°C),Sample RH (%),Span deviation,Mass concentration (μg/m³),Mass concentration (μg/m³),Mass concentration (μg/m³)
DateTimeUTC,F1_M11,P_M11,Q1_M11,Q2_M11,T1_M11,T2_M11,T3_M11,T4_M11,T5_M11,U1_M11,ZSPAN_M11,X2_M11,X0_M11,X1_M11
2021-10-28 18:00:00,,0831.7,5.02,0.00,22.8,22.3,00.0,31.6,24.7,14.3,0000.0,0004.45,0011.78,0003.84
2021-10-28 18:01:00,,0831.7,4.99,0.00,22.8,22.3,00.0,31.6,24.7,14.1,0000.0,0004.44,0011.85,0003.83
2021-10-28 18:02:00,,0831.8,5.01,0.00,22.8,22.3,00.0,31.7,24.7,14.1,0000.0,0004.44,0011.76,0003.83
2021-10-28 18:03:00,,0831.7,4.99,0.00,22.8,22.4,00.0,31.7,24.7,14.4,0000.0,0004.45,0011.70,0003.83
2021-10-28 18:04:00,,0831.7,5.00,0.00,22.8,22.4,00.0,31.7,24.7,14.4,0000.0,0004.46,0011.83,0003.84
2021-10-28 18:05:00,,0831.7,5.01,0.00,22.8,22.3,00.0,31.7,24.7,14.3,0000.0,0004.45,0011.32,0003.85
2021-10-28 18:06:00,,0831.8,5.00,0.00,22.8,22.3,00.0,31.7,24.7,14.4,0000.0,0004.50,0011.01,0003.87
2021-10-28 18:07:00,,0831.7,4.99,0.00,22.9,22.3,00.0,31.8,24.7,14.3,0000.0,0004.57,0011.11,0003.87
2021-10-28 18:08:00,,0831.7,5.00,0.00,22.9,22.4,00.0,31.8,24.8,14.2,0000.0,0004.60,0011.32,0003.88
2021-10-28 18:09:00,,0831.6,5.00,0.00,22.9,22.4,00.0,31.8,24.8,14.3,0000.0,0004.64,0011.94,0003.90
2021-10-28 18:10:00,,0831.6,4.99,0.00,22.9,22.4,00.0,31.8,24.8,14.2,0000.0,0004.68,0011.96,0003.91
2021-10-28 18:11:00,,0831.7,4.99,0.00,22.9,22.4,00.0,31.8,24.9,14.3,0000.0,0004.71,0012.33,0003.92
2021-10-28 18:12:00,,0831.6,5.00,0.00,22.9,22.4,00.0,31.8,24.9,14.3,0000.0,0004.75,0012.54,0003.95
2021-10-28 18:13:00,,0831.7,5.01,0.00,22.9,22.4,00.0,31.8,24.9,14.2,0000.0,0004.79,0012.58,0003.97
2021-10-28 18:14:00,,0831.6,5.00,0.00,23.0,22.5,00.0,31.9,24.9,14.3,0000.0,0004.81,0012.51,0003.98
2021-10-28 18:15:00,,0831.7,5.01,0.00,23.0,22.5,00.0,31.9,24.9,14.4,0000.0,0004.82,0012.52,0004.00
2021-10-28 18:16:00,,0831.6,5.00,0.00,23.0,22.5,00.0,31.9,24.9,14.2,0000.0,0004.81,0012.43,0004.01
2021-10-28 18:17:00,,0831.7,4.99,0.00,23.0,22.5,00.0,31.9,24.9,14.0,0000.0,0004.80,0013.06,0003.99
2021-10-28 18:18:00,,0831.7,5.00,0.00,23.0,22.5,00.0,31.9,24.9,13.9,0000.0,0004.73,0012.98,0003.97
2021-10-28 18:19:00,,0831.6,5.00,0.00,23.0,22.4,00.0,31.9,24.9,14.0,0000.0,0004.69,0012.29,0003.94
2021-10-28 18:20:00,,0831.7,5.00,0.00,23.0,22.4,00.0,31.9,24.9,14.3,0000.0,0004.69,0012.36,0003.93
2021-10-28 18:21:00,,0831.7,5.00,0.00,23.0,22.5,00.0,32.0,24.9,14.3,0000.0,0004.70,0012.59,0003.92
2021-10-28 18:22:00,,0831.7,5.00,0.00,23.0,22.5,00.0,32.0,24.9,14.3,0000.0,0004.67,0012.10,0003.93
2021-10-28 18:23:00,,0831.7,4.99,0.00,23.1,22.5,00.0,32.0,24.9,14.2,0000.0,0004.66,0011.88,0003.93
2021-10-28 18:24:00,,0831.7,5.00,0.00,23.1,22.5,00.0,32.0,25.0,14.1,0000.0,0004.65,0012.07,0003.94
2021-10-28 18:25:00,,0831.7,5.01,0.00,23.1,22.6,00.0,32.0,25.0,14.2,0000.0,0004.67,0012.52,0003.94
2021-10-28 18:26:00,,0831.8,4.98,0.00,23.1,22.6,00.0,32.0,25.0,14.1,0000.0,0004.67,0012.74,0003.93
2021-10-28 18:27:00,,0831.7,5.01,0.00,23.1,22.6,00.0,32.0,25.0,14.0,0000.0,0004.72,0012.94,0003.93
2021-10-28 18:28:00,,0831.7,5.01,0.00,23.2,22.6,00.0,32.0,25.0,14.0,0000.0,0004.74,0012.34,0003.94
2021-10-28 18:29:00,,0831.7,5.00,0.00,23.2,22.6,00.0,32.1,25.0,13.9,0000.0,0004.76,0012.25,0003.96
2021-10-28 18:30:00,,0831.8,5.00,0.00,23.2,22.7,00.0,32.1,25.1,14.0,0000.0,0004.77,0011.71,0003.97
2021-10-28 18:31:00,,0831.8,5.00,0.00,23.2,22.7,00.0,32.1,25.1,14.0,0000.0,0004.75,0011.96,0003.98
2021-10-28 18:32:00,,0831.7,5.00,0.00,23.3,22.7,00.0,32.1,25.1,13.9,0000.0,0004.72,0011.50,0003.97
2021-10-28 18:33:00,,0831.7,5.01,0.00,23.3,22.8,00.0,32.1,25.1,13.9,0000.0,0004.74,0011.67,0003.96
2021-10-28 18:34:00,,0831.7,5.00,0.00,23.3,22.8,00.0,32.1,25.2,13.8,0000.0,0004.74,0012.01,0003.95
2021-10-28 18:35:00,,0831.8,5.01,0.00,23.3,22.8,00.0,32.2,25.2,13.8,0000.0,0004.71,0012.15,0003.94
2021-10-28 18:36:00,,0831.7,4.99,0.00,23.3,22.8,00.0,32.2,25.2,13.8,0000.0,0004.69,0011.98,0003.94
2021-10-28 18:37:00,,0831.7,5.00,0.00,23.4,22.9,00.0,32.2,25.2,13.8,0000.0,0004.71,0011.80,0003.94
2021-10-28 18:38:00,,0831.7,5.01,0.00,23.4,22.9,00.0,32.2,25.2,13.7,0000.0,0004.69,0011.93,0003.94
2021-10-28 18:39:00,,0831.7,4.99,0.00,23.4,22.9,00.0,32.3,25.3,13.6,0000.0,0004.71,0012.77,0003.94
2021-10-28 18:40:00,,0831.6,5.01,0.00,23.4,22.9,00.0,32.3,25.3,13.6,0000.0,0004.75,0013.55,0003.94
2021-10-28 18:41:00,,0831.7,4.99,0.00,23.4,22.9,00.0,32.3,25.3,13.7,0000.0,0004.77,0014.07,0003.95
2021-10-28 18:42:00,,0831.6,5.01,0.00,23.5,23.0,00.0,32.3,25.3,13.8,0000.0,0004.76,0013.21,0003.94
2021-10-28 18:43:00,,0831.6,5.00,0.00,23.5,23.0,00.0,32.3,25.3,13.7,0000.0,0004.78,0013.02,0003.95
2021-10-28 18:44:00,,0831.5,4.99,0.00,23.5,23.0,00.0,32.3,25.4,13.6,0000.0,0004.74,0012.81,0003.95
2021-10-28 18:45:00,,0831.6,5.01,0.00,23.5,23.0,00.0,32.4,25.4,13.6,0000.0,0004.73,0012.45,0003.97
2021-10-28 18:46:00,,0831.5,4.99,0.00,23.5,23.0,00.0,32.4,25.4,13.7,0000.0,0004.77,0011.87,0003.99
2021-10-28 18:47:00,,0831.5,5.01,0.00,23.6,23.0,00.0,32.4,25.4,13.7,0000.0,0004.82,0012.01,0004.01
2021-10-28 18:48:00,,0831.5,4.99,0.00,23.6,23.1,00.0,32.4,25.5,13.6,0000.0,0004.85,0012.00,0004.02
2021-10-28 18:49:00,,0831.5,4.99,0.00,23.6,23.1,00.0,32.4,25.5,13.7,0000.0,0004.90,0011.98,0004.03
2021-10-28 18:50:00,,0831.6,5.01,0.00,23.7,23.2,00.0,32.5,25.5,13.6,0000.0,0004.87,0012.31,0004.04
2021-10-28 18:51:00,,0831.6,5.00,0.00,23.7,23.2,00.0,32.5,25.6,13.5,0000.0,0004.86,0012.16,0004.05
2021-10-28 18:52:00,,0831.5,4.99,0.00,23.7,23.2,00.0,32.5,25.6,13.5,0000.0,0004.88,0011.64,0004.07
2021-10-28 18:53:00,,0831.5,5.01,0.00,23.7,23.3,00.0,32.5,25.6,13.5,0000.0,0004.89,0011.47,0004.10
2021-10-28 18:54:00,,0831.5,5.01,0.00,23.8,23.3,00.0,32.6,25.7,13.6,0000.0,0004.89,0011.71,0004.11
2021-10-28 18:55:00,,0831.4,4.99,0.00,23.8,23.3,00.0,32.6,25.7,13.5,0000.0,0004.93,0011.95,0004.11
2021-10-28 18:56:00,,0831.4,5.01,0.00,23.8,23.3,00.0,32.6,25.7,13.5,0000.0,0004.95,0012.05,0004.13
2021-10-28 18:57:00,,0831.5,5.00,0.00,23.9,23.4,00.0,32.6,25.8,13.5,0000.0,0004.89,0011.74,0004.12
2021-10-28 18:58:00,,0831.5,4.99,0.00,23.9,23.4,00.0,32.7,25.9,13.6,0000.0,0004.86,0011.88,0004.10
2021-10-28 18:59:00,,0831.5,5.00,0.00,23.9,23.4,00.0,32.7,25.9,13.6,0000.0,0004.83,0012.47,0004.09
